Santiago De Compostela, Spain

10:15 AM CET on February 07, 2016 (GMT +0100)
Santiago

Weather History for LEST - June, 2013

Change the Weather History Date:

Saturday, June 29, 2013

  Actual Average Record
Temperature  
Mean Temperature 66 °F -  
Max Temperature 82 °F 73 °F 100 °F (2015)
Min Temperature 50 °F 54 °F 46 °F (2007)
Cooling Degree Days 1    
Growing Degree Days 16 (Base 50)    
Moisture  
Dew Point 49 °F    
Average Humidity 56    
Maximum Humidity 88    
Minimum Humidity 32    
Precipitation  
Precipitation 0.00 in - - ()
Sea Level Pressure  
Sea Level Pressure 30.30 in    
Wind  
Wind Speed 7 mph ()    
Max Wind Speed 15 mph    
Max Gust Speed 23 mph    
Averages and records for this station are not official NWS values.
T = Trace of Precipitation, MM = Missing Value Source: Averaged Metar Reports

Daily Weather History Graph

Daily Weather History Graph

Search for Another Location

Airport or City:

Trip Planner

Search our weather history database for the weather conditions in past years. The results will help you decide how hot, cold, wet, or windy it might be!

Date:

Astronomy

Jun. 29, 2013 Rise Set
Actual Time 6:57 AM CEST 10:16 PM CEST
Civil Twilight 6:22 AM CEST 10:51 PM CEST
Nautical Twilight 5:37 AM CEST 11:37 PM CEST
Astronomical Twilight 4:40 AM CEST 12:33 AM CEST
Moon 1:28 AM CEST (6/29) 2:06 PM CEST (6/29)
Length of Visible Light 16h 29m
Length of Day
15h 18m
Waning Gibbous, 58% of the Moon is Illuminated
Jun 29
Waning Gibbous
Jun 30
Last Quarter
Jul 8
New
Jul 16
First Quarter
Jul 22
Full

Hourly Weather History & Observations

Time (CEST) Temp. Heat Index Dew Point Humidity Pressure Visibility Wind Dir Wind Speed Gust Speed Precip Events Conditions
12:00 AM 59.0 °F - 48.2 °F 67% 30.33 in - North 9.2 mph - N/A   Clear
12:30 AM 57.2 °F - 48.2 °F 72% 30.33 in - North 11.5 mph - N/A   Clear
1:00 AM 55.4 °F - 48.2 °F 77% 30.36 in - North 11.5 mph - N/A   Clear
1:30 AM 55.4 °F - 48.2 °F 77% 30.36 in - North 8.1 mph - N/A   Clear
2:00 AM 55.4 °F - 48.2 °F 77% 30.36 in - Variable 1.2 mph - N/A   Clear
2:30 AM 53.6 °F - 48.2 °F 82% 30.33 in - North 5.8 mph - N/A   Clear
3:00 AM 53.6 °F - 48.2 °F 82% 30.33 in - NNE 8.1 mph - N/A   Clear
3:30 AM 51.8 °F - 48.2 °F 88% 30.33 in - NNE 6.9 mph - N/A   Clear
4:00 AM 53.6 °F - 46.4 °F 77% 30.33 in - NNE 8.1 mph - N/A   Clear
4:30 AM 53.6 °F - 46.4 °F 77% 30.33 in - NNE 4.6 mph - N/A   Clear
5:00 AM 51.8 °F - 44.6 °F 76% 30.33 in - NNE 5.8 mph - N/A   Clear
5:30 AM 51.8 °F - 46.4 °F 82% 30.33 in - Variable 2.3 mph - N/A   Clear
6:00 AM 50.0 °F - 44.6 °F 82% 30.33 in - Variable 1.2 mph - N/A   Clear
6:30 AM 50.0 °F - 44.6 °F 82% 30.33 in - NE 3.5 mph - N/A   Clear
7:00 AM 51.8 °F - 44.6 °F 76% 30.33 in - ENE 4.6 mph - N/A   Clear
7:30 AM 51.8 °F - 44.6 °F 76% 30.33 in - Variable 2.3 mph - N/A   Clear
8:00 AM 55.4 °F - 44.6 °F 67% 30.33 in - Variable 2.3 mph - N/A   Clear
8:30 AM 55.4 °F - 46.4 °F 72% 30.33 in - Variable 1.2 mph - N/A   Clear
9:00 AM 57.2 °F - 46.4 °F 67% 30.33 in - Calm Calm - N/A   Clear
9:30 AM 60.8 °F - 46.4 °F 59% 30.33 in - Variable 2.3 mph - N/A   Clear
10:00 AM 62.6 °F - 46.4 °F 55% 30.33 in - NE 5.8 mph - N/A   Clear
10:30 AM 66.2 °F - 48.2 °F 52% 30.33 in - ENE 4.6 mph - N/A   Clear
11:00 AM 68.0 °F - 48.2 °F 49% 30.33 in - NE 6.9 mph - N/A   Clear
11:30 AM 69.8 °F - 48.2 °F 46% 30.33 in - NE 9.2 mph - N/A   Clear
12:00 PM 73.4 °F - 50.0 °F 44% 30.33 in - NE 9.2 mph - N/A   Clear
12:30 PM 75.2 °F - 51.8 °F 44% 30.30 in - NE 9.2 mph - N/A   Clear
1:00 PM 77.0 °F - 51.8 °F 41% 30.30 in - NE 11.5 mph - N/A   Clear
1:30 PM 78.8 °F - 53.6 °F 42% 30.30 in - NE 9.2 mph - N/A   Clear
2:00 PM 78.8 °F - 53.6 °F 42% 30.30 in - NE 11.5 mph - N/A   Clear
2:30 PM 80.6 °F 80.8 °F 57.2 °F 45% 30.30 in - NE 8.1 mph - N/A   Clear
3:00 PM 82.4 °F 81.4 °F 53.6 °F 37% 30.30 in - NE 10.4 mph - N/A   Clear
3:30 PM 82.4 °F 81.4 °F 53.6 °F 37% 30.27 in - NE 11.5 mph - N/A   Clear
4:00 PM 82.4 °F - 50.0 °F 32% 30.27 in - NE 12.7 mph - N/A   Clear
4:30 PM 82.4 °F - 50.0 °F 32% 30.27 in - NE 15.0 mph - N/A   Clear
5:00 PM 82.4 °F - 51.8 °F 35% 30.27 in - NE 10.4 mph - N/A   Clear
5:30 PM 82.4 °F - 50.0 °F 32% 30.27 in - NE 13.8 mph - N/A   Clear
6:00 PM 82.4 °F - 50.0 °F 32% 30.27 in - ENE 12.7 mph - N/A   Clear
6:30 PM 80.6 °F - 50.0 °F 34% 30.27 in - ENE 12.7 mph - N/A   Clear
7:00 PM 80.6 °F - 48.2 °F 32% 30.24 in - NE 11.5 mph - N/A   Clear
7:30 PM 78.8 °F - 48.2 °F 34% 30.24 in - ENE 11.5 mph 23.0 mph N/A   Clear
8:00 PM 78.8 °F - 46.4 °F 32% 30.24 in - NE 10.4 mph - N/A   Clear
8:30 PM 77.0 °F - 48.2 °F 36% 30.24 in - ENE 9.2 mph 20.7 mph N/A   Clear
9:00 PM 73.4 °F - 50.0 °F 44% 30.24 in - NE 11.5 mph - N/A   Clear
9:30 PM 73.4 °F - 50.0 °F 44% 30.24 in - NNE 5.8 mph - N/A   Clear
10:00 PM 69.8 °F - 50.0 °F 49% 30.24 in - NNE 5.8 mph - N/A   Clear
10:30 PM 66.2 °F - 51.8 °F 60% 30.24 in - NE 9.2 mph - N/A   Clear
11:00 PM 66.2 °F - 51.8 °F 60% 30.24 in - NE 9.2 mph - N/A   Clear
11:30 PM 62.6 °F - 50.0 °F 63% 30.24 in - NE 4.6 mph - N/A   Clear